Time,TemperatureF,DewpointF,PressureIn,WindDirection,WindDirectionDegrees,WindSpeedMPH,WindSpeedGustMPH,Humidity,HourlyPrecipIn,Conditions,Clouds,dailyrainin,SoftwareType,DateUTC
2013-07-23 00:05:00,80.4,75.0,29.76,South,183,0.0,3.0,84,0.00,,,0.00,weatherlink.com 1.10,2013-07-23 04:05:00,
2013-07-23 00:20:00,80.3,75.0,29.76,SE,140,0.0,3.0,83,0.00,,,0.00,weatherlink.com 1.10,2013-07-23 04:20:00,
2013-07-23 00:35:00,80.2,75.0,29.75,SSE,150,1.0,3.0,83,0.00,,,0.00,weatherlink.com 1.10,2013-07-23 04:35:00,
2013-07-23 00:50:00,80.0,75.0,29.74,SSE,165,1.0,4.0,84,0.00,,,0.00,weatherlink.com 1.10,2013-07-23 04:50:00,
2013-07-23 01:05:00,80.1,75.0,29.74,SSE,155,0.0,3.0,83,0.00,,,0.00,weatherlink.com 1.10,2013-07-23 05:05:00,
2013-07-23 01:20:00,80.2,74.0,29.73,SSW,194,1.0,4.0,81,0.00,,,0.00,weatherlink.com 1.10,2013-07-23 05:20:00,
2013-07-23 01:35:00,80.4,74.0,29.72,ESE,113,2.0,5.0,81,0.00,,,0.00,weatherlink.com 1.10,2013-07-23 05:35:00,
2013-07-23 01:50:00,80.5,75.0,29.72,South,183,0.0,7.0,82,0.00,,,0.00,weatherlink.com 1.10,2013-07-23 05:50:00,
2013-07-23 02:05:00,79.9,74.0,29.72,SSE,163,0.0,5.0,81,0.00,,,0.00,weatherlink.com 1.10,2013-07-23 06:05:00,
2013-07-23 02:20:00,77.6,73.0,29.73,NW,319,1.0,4.0,85,0.02,,,0.02,weatherlink.com 1.10,2013-07-23 06:20:00,
2013-07-23 02:35:00,75.8,73.0,29.72,North,355,0.0,1.0,90,0.04,,,0.04,weatherlink.com 1.10,2013-07-23 06:35:00,
2013-07-23 02:50:00,75.3,73.0,29.71,North,355,0.0,0.0,92,0.04,,,0.04,weatherlink.com 1.10,2013-07-23 06:50:00,
2013-07-23 03:05:00,75.3,73.0,29.71,North,355,0.0,1.0,93,0.04,,,0.04,weatherlink.com 1.10,2013-07-23 07:05:00,
2013-07-23 03:20:00,75.4,74.0,29.71,North,355,0.0,0.0,94,0.01,,,0.04,weatherlink.com 1.10,2013-07-23 07:20:00,
2013-07-23 03:35:00,75.9,74.0,29.71,North,355,0.0,0.0,95,0.00,,,0.04,weatherlink.com 1.10,2013-07-23 07:35:00,
2013-07-23 03:50:00,76.1,75.0,29.71,North,355,0.0,0.0,95,0.00,,,0.04,weatherlink.com 1.10,2013-07-23 07:50:00,
2013-07-23 04:05:00,76.2,75.0,29.70,North,355,0.0,0.0,95,0.00,,,0.04,weatherlink.com 1.10,2013-07-23 08:05:00,
2013-07-23 04:20:00,76.2,75.0,29.70,North,355,0.0,0.0,95,0.00,,,0.04,weatherlink.com 1.10,2013-07-23 08:20:00,
2013-07-23 04:35:00,76.1,75.0,29.70,North,355,0.0,0.0,95,0.00,,,0.04,weatherlink.com 1.10,2013-07-23 08:35:00,
2013-07-23 04:50:00,76.1,75.0,29.70,North,355,0.0,0.0,95,0.00,,,0.04,weatherlink.com 1.10,2013-07-23 08:50:00,
2013-07-23 05:05:00,76.0,75.0,29.69,North,355,0.0,0.0,95,0.00,,,0.04,weatherlink.com 1.10,2013-07-23 09:05:00,
2013-07-23 05:20:00,76.0,75.0,29.69,North,355,0.0,0.0,95,0.00,,,0.04,weatherlink.com 1.10,2013-07-23 09:20:00,
2013-07-23 05:35:00,76.2,75.0,29.69,ESE,106,0.0,2.0,95,0.00,,,0.04,weatherlink.com 1.10,2013-07-23 09:35:00,
2013-07-23 05:50:00,76.2,74.0,29.68,East,97,0.0,2.0,94,0.00,,,0.04,weatherlink.com 1.10,2013-07-23 09:50:00,
2013-07-23 06:05:00,76.2,74.0,29.69,SE,132,0.0,1.0,94,0.00,,,0.04,weatherlink.com 1.10,2013-07-23 10:05:00,
2013-07-23 06:20:00,76.4,74.0,29.69,ESE,105,0.0,2.0,93,0.00,,,0.04,weatherlink.com 1.10,2013-07-23 10:20:00,
2013-07-23 06:35:00,76.5,74.0,29.69,SW,221,0.0,1.0,93,0.00,,,0.04,weatherlink.com 1.10,2013-07-23 10:35:00,
2013-07-23 06:50:00,76.7,75.0,29.69,SW,215,0.0,0.0,93,0.00,,,0.04,weatherlink.com 1.10,2013-07-23 10:50:00,
2013-07-23 07:05:00,76.8,75.0,29.69,SW,217,0.0,1.0,93,0.00,,,0.04,weatherlink.com 1.10,2013-07-23 11:05:00,
2013-07-23 07:20:00,76.9,75.0,29.70,ESE,114,0.0,2.0,92,0.00,,,0.04,weatherlink.com 1.10,2013-07-23 11:20:00,
2013-07-23 07:35:00,77.2,75.0,29.69,ESE,115,0.0,1.0,93,0.00,,,0.04,weatherlink.com 1.10,2013-07-23 11:35:00,
2013-07-23 07:51:00,77.3,75.0,29.70,NNE,24,0.0,2.0,92,0.00,,,0.04,weatherlink.com 1.10,2013-07-23 11:51:00,
2013-07-23 08:06:00,77.2,75.0,29.70,SSW,198,0.0,4.0,92,0.00,,,0.04,weatherlink.com 1.10,2013-07-23 12:06:00,
2013-07-23 08:21:00,77.7,75.0,29.70,SSE,162,0.0,2.0,91,0.00,,,0.04,weatherlink.com 1.10,2013-07-23 12:21:00,
2013-07-23 08:36:00,78.0,75.0,29.70,SSE,154,0.0,1.0,91,0.00,,,0.04,weatherlink.com 1.10,2013-07-23 12:36:00,
2013-07-23 08:51:00,77.8,74.0,29.70,South,180,2.0,2.0,89,0.00,,,0.04,weatherlink.com 1.10,2013-07-23 12:51:00,
2013-07-23 09:06:00,78.6,75.0,29.70,SSE,164,0.0,2.0,89,0.00,,,0.04,weatherlink.com 1.10,2013-07-23 13:06:00,
2013-07-23 09:21:00,78.9,76.0,29.69,East,92,0.0,1.0,89,0.00,,,0.04,weatherlink.com 1.10,2013-07-23 13:21:00,
2013-07-23 09:36:00,79.2,75.0,29.69,ENE,76,0.0,3.0,87,0.00,,,0.04,weatherlink.com 1.10,2013-07-23 13:36:00,
2013-07-23 09:51:00,79.1,75.0,29.69,NW,315,0.0,6.0,86,0.00,,,0.04,weatherlink.com 1.10,2013-07-23 13:51:00,
2013-07-23 10:06:00,78.9,74.0,29.69,NNE,28,1.0,3.0,84,0.00,,,0.04,weatherlink.com 1.10,2013-07-23 14:06:00,
2013-07-23 10:21:00,79.3,74.0,29.69,SW,220,0.0,4.0,83,0.00,,,0.04,weatherlink.com 1.10,2013-07-23 14:21:00,
2013-07-23 10:36:00,79.6,73.0,29.69,SSE,155,0.0,3.0,81,0.00,,,0.04,weatherlink.com 1.10,2013-07-23 14:36:00,
2013-07-23 10:51:00,81.0,75.0,29.69,East,94,1.0,2.0,81,0.00,,,0.04,weatherlink.com 1.10,2013-07-23 14:51:00,
2013-07-23 11:06:00,81.2,74.0,29.69,South,171,0.0,3.0,79,0.00,,,0.04,weatherlink.com 1.10,2013-07-23 15:06:00,
2013-07-23 11:21:00,82.2,74.0,29.69,SSE,150,0.0,5.0,77,0.00,,,0.04,weatherlink.com 1.10,2013-07-23 15:21:00,
2013-07-23 11:36:00,82.6,75.0,29.69,SW,225,1.0,3.0,78,0.00,,,0.04,weatherlink.com 1.10,2013-07-23 15:36:00,
2013-07-23 11:51:00,83.8,75.0,29.68,NW,305,2.0,3.0,75,0.00,,,0.04,weatherlink.com 1.10,2013-07-23 15:51:00,
2013-07-23 12:06:00,83.6,75.0,29.69,SE,138,0.0,4.0,74,0.00,,,0.04,weatherlink.com 1.10,2013-07-23 16:06:00,
2013-07-23 12:21:00,83.3,74.0,29.68,NW,304,0.0,3.0,73,0.00,,,0.04,weatherlink.com 1.10,2013-07-23 16:21:00,
2013-07-23 12:36:00,83.7,75.0,29.68,North,355,0.0,3.0,76,0.00,,,0.04,weatherlink.com 1.10,2013-07-23 16:36:00,
2013-07-23 12:51:00,84.7,74.0,29.68,SE,141,0.0,2.0,71,0.00,,,0.04,weatherlink.com 1.10,2013-07-23 16:51:00,
2013-07-23 13:06:00,84.5,75.0,29.68,ENE,60,0.0,5.0,72,0.00,,,0.04,weatherlink.com 1.10,2013-07-23 17:06:00,
2013-07-23 13:21:00,85.9,75.0,29.68,South,172,0.0,2.0,70,0.00,,,0.04,weatherlink.com 1.10,2013-07-23 17:21:00,
2013-07-23 13:36:00,86.4,76.0,29.67,North,355,1.0,4.0,72,0.00,,,0.04,weatherlink.com 1.10,2013-07-23 17:36:00,
2013-07-23 13:51:00,86.9,76.0,29.66,East,101,0.0,4.0,69,0.00,,,0.04,weatherlink.com 1.10,2013-07-23 17:51:00,
2013-07-23 14:06:00,86.9,74.0,29.66,South,178,2.0,3.0,65,0.00,,,0.04,weatherlink.com 1.10,2013-07-23 18:06:00,
2013-07-23 14:21:00,87.3,73.0,29.66,ESE,123,0.0,3.0,63,0.00,,,0.04,weatherlink.com 1.10,2013-07-23 18:21:00,
2013-07-23 14:36:00,87.7,73.0,29.66,NNE,21,0.0,5.0,61,0.00,,,0.04,weatherlink.com 1.10,2013-07-23 18:36:00,
2013-07-23 14:51:00,87.3,73.0,29.66,East,88,0.0,4.0,63,0.00,,,0.04,weatherlink.com 1.10,2013-07-23 18:51:00,
2013-07-23 15:06:00,87.2,74.0,29.66,NE,34,0.0,4.0,65,0.00,,,0.04,weatherlink.com 1.10,2013-07-23 19:06:00,
2013-07-23 15:36:00,87.5,73.0,29.65,North,350,2.0,5.0,63,0.00,,,0.04,weatherlink.com 1.10,2013-07-23 19:36:00,
2013-07-23 16:21:00,86.3,72.0,29.64,North,355,1.0,4.0,63,0.00,,,0.04,weatherlink.com 1.10,2013-07-23 20:21:00,
2013-07-23 16:36:00,86.1,72.0,29.64,NW,313,1.0,5.0,62,0.00,,,0.04,weatherlink.com 1.10,2013-07-23 20:36:00,
2013-07-23 16:51:00,84.8,71.0,29.64,NNW,336,2.0,5.0,64,0.00,,,0.04,weatherlink.com 1.10,2013-07-23 20:51:00,
2013-07-23 17:21:00,84.3,72.0,29.64,NE,34,0.0,4.0,66,0.00,,,0.04,weatherlink.com 1.10,2013-07-23 21:21:00,
2013-07-23 17:36:00,84.3,73.0,29.64,NW,306,1.0,4.0,68,0.00,,,0.04,weatherlink.com 1.10,2013-07-23 21:36:00,
2013-07-23 17:51:00,84.4,72.0,29.63,East,97,0.0,4.0,66,0.00,,,0.04,weatherlink.com 1.10,2013-07-23 21:51:00,
2013-07-23 18:06:00,84.1,71.0,29.63,NW,309,0.0,4.0,65,0.00,,,0.04,weatherlink.com 1.10,2013-07-23 22:06:00,
2013-07-23 18:21:00,83.8,70.0,29.63,NNE,29,1.0,3.0,63,0.00,,,0.04,weatherlink.com 1.10,2013-07-23 22:21:00,
2013-07-23 18:36:00,83.6,71.0,29.63,NNW,336,0.0,2.0,66,0.00,,,0.04,weatherlink.com 1.10,2013-07-23 22:36:00,
2013-07-23 18:51:00,83.2,71.0,29.63,North,355,0.0,3.0,66,0.00,,,0.04,weatherlink.com 1.10,2013-07-23 22:51:00,
2013-07-23 19:21:00,82.6,70.0,29.65,SSW,212,0.0,5.0,66,0.00,,,0.04,weatherlink.com 1.10,2013-07-23 23:21:00,
2013-07-23 19:36:00,82.3,70.0,29.65,SSW,213,0.0,1.0,66,0.00,,,0.04,weatherlink.com 1.10,2013-07-23 23:36:00,
2013-07-23 19:51:00,82.0,70.0,29.66,WNW,288,0.0,2.0,66,0.00,,,0.04,weatherlink.com 1.10,2013-07-23 23:51:00,
2013-07-23 20:06:00,81.7,69.0,29.66,WNW,292,0.0,3.0,66,0.00,,,0.04,weatherlink.com 1.10,2013-07-24 00:06:00,
2013-07-23 20:21:00,81.4,69.0,29.66,WNW,292,0.0,1.0,67,0.00,,,0.04,weatherlink.com 1.10,2013-07-24 00:21:00,
2013-07-23 20:36:00,81.3,69.0,29.66,NW,320,2.0,3.0,66,0.00,,,0.04,weatherlink.com 1.10,2013-07-24 00:36:00,
2013-07-23 20:51:00,81.2,69.0,29.67,North,360,0.0,2.0,67,0.00,,,0.04,weatherlink.com 1.10,2013-07-24 00:51:00,
2013-07-23 21:06:00,80.8,69.0,29.68,North,360,0.0,1.0,68,0.00,,,0.04,weatherlink.com 1.10,2013-07-24 01:06:00,
2013-07-23 21:21:00,80.5,69.0,29.68,North,360,0.0,1.0,69,0.00,,,0.04,weatherlink.com 1.10,2013-07-24 01:21:00,
2013-07-23 21:36:00,80.2,70.0,29.68,North,360,0.0,0.0,70,0.00,,,0.04,weatherlink.com 1.10,2013-07-24 01:36:00,
2013-07-23 21:52:00,79.6,69.0,29.68,North,360,0.0,0.0,70,0.00,,,0.04,weatherlink.com 1.10,2013-07-24 01:52:00,
2013-07-23 22:22:00,78.4,69.0,29.68,North,360,0.0,0.0,73,0.00,,,0.04,weatherlink.com 1.10,2013-07-24 02:22:00,
2013-07-23 22:37:00,77.8,69.0,29.68,North,360,0.0,0.0,75,0.00,,,0.04,weatherlink.com 1.10,2013-07-24 02:37:00,
2013-07-23 22:52:00,77.3,69.0,29.68,North,360,0.0,0.0,76,0.00,,,0.04,weatherlink.com 1.10,2013-07-24 02:52:00,
2013-07-23 23:22:00,76.5,70.0,29.68,North,360,0.0,0.0,80,0.00,,,0.04,weatherlink.com 1.10,2013-07-24 03:22:00,
2013-07-23 23:37:00,76.0,70.0,29.69,North,360,0.0,0.0,82,0.00,,,0.04,weatherlink.com 1.10,2013-07-24 03:37:00,
2013-07-23 23:52:00,75.6,70.0,29.69,North,360,0.0,0.0,82,0.00,,,0.04,weatherlink.com 1.10,2013-07-24 03:52:00,